Location: Stanford
(52.2833°N, 2.4333°W)
Time: 02:29:28
(UTC+00:00)

Cosmos 2344 - Pass Details

Date: 22 January 2021
Orbit: 1243 x 2999 km, 63.3° (Epoch: 28 February)

Event Time Altitude Azimuth Distance (km) Brightness Sun altitude
Rises 18:19:20 0° 309° (NW) 4,392 7.0 -15.0°
Reaches altitude 10° 18:21:56 10° 312° (NW) 3,528 6.4 -15.4°
Maximum altitude 18:30:35 70° 37° (NE) 1,809 4.2 -16.7°
Drops below altitude 10° 18:42:31 10° 121° (ESE) 4,760 6.1 -18.5°
Enters shadow 18:42:54 - 121° (ESE) 4,879 6.2 -18.5°
